Location: Krasnoyarskiy
(51.1133°N, 71.6497°E)
Time: 21:34:04
(UTC+00:00)

Okean 1 - Pass Details

Date: 27 September 2022
Orbit: 526 x 554 km, 82.5° (Epoch: 03 December)

Event Time Altitude Azimuth Distance (km) Brightness Sun altitude
Rises 00:32:54 0° 195° (SSW) 2,725 6.7 -6.2°
Reaches altitude 10° 00:35:04 10° 198° (SSW) 1,837 5.8 -5.8°
Maximum altitude 00:39:06 69° 282° (WNW) 602 3.3 -5.2°
Drops below altitude 10° 00:43:10 10° 6° (N) 1,851 6.1 -4.6°
Sets 00:45:22 0° 9° (N) 2,749 7.0 -4.2°
